KUIPER-00171 (65784 NORAD) Tracking and Keplerian Element Data

This shows tracking and keplerian element data for the satellite.

Feedback or suggestion? Click here.




ElementValue
Catalog65784
NameKUIPER-00171
Epoch Orbit1326
Epoch Day353.79666315
Epoch Year2025
RAAN20.3379
Inclination51.8573
Eccentricity0.0010977
Argument of Perigee38.0782
Mean Anonmoly322.0993
Mean Motion15.70957528
Decay Rate0.00181551
L11 65784U 25217Y 25353.79666315 .00181551 00000+0 13905-2 0 9998
L22 65784 51.8573 20.3379 0010977 38.0782 322.0993 15.70957528 13266



Live tracking and technical data element details for KUIPER-00171 (NORAD 65784). KUIPER-00171 can be tracked NOW for your location showing map with azimuth and elevation plus other details from your city location.







IsCatalogInMostPopularTable: catalog: 65784, numindb: 5
Update: records affected: 1



GetName: 65784 KUIPER-00171

Hit Count: updated at: Mon, 20 Apr 2026 10:16:23 GMT